Overview Statistics Trail Chart Weather Telemetry Raw packets
 

This is the latest recevied weather packets stored in our database for station/object KF0WJA. If no packets are shown the sender has not sent any weather packets the latest 10 day(s).

<< 96 97 98 99 100 101 102 >>
Time Temp. Humidity Pressure Rain* Wind** Luminosity Snow
1787942826 31.67° C 44% 1022.2 hPa 0 mm - 682 W/m² -
1787942522 31.67° C 44% 1022.2 hPa 0 mm - 675 W/m² -
1787942216 31.67° C 45% 1022.1 hPa 0 mm - 673 W/m² -
1787941911 31.11° C 44% 1022.3 hPa 0 mm - 688 W/m² -
1787941611 30° C 47% 1022.5 hPa 0 mm - 714 W/m² -
1787941311 30° C 48% 1022.4 hPa 0 mm - 275 W/m² -
1787941010 30° C 47% 1022.4 hPa 0 mm - 246 W/m² -
1787940709 30° C 48% 1022.6 hPa 0 mm - 304 W/m² -
1787940407 30.56° C 48% 1022.5 hPa 0 mm - 626 W/m² -
1787940102 30.56° C 49% 1022.7 hPa 0 mm - 455 W/m² -
1787939797 29.44° C 50% 1022.9 hPa 0 mm - 607 W/m² -
1787939496 29.44° C 51% 1022.9 hPa 0 mm - 514 W/m² -
1787939191 28.89° C 52% 1023 hPa 0 mm - 695 W/m² -
1787938891 28.89° C 52% 1023 hPa 0 mm - 435 W/m² -
1787938591 28.33° C 53% 1022.9 hPa 0 mm - 481 W/m² -
1787938286 28.33° C 53% 1023 hPa 0 mm - 363 W/m² -
1787937981 28.33° C 54% 1023.3 hPa 0 mm - 326 W/m² -
1787937676 28.33° C 53% 1023.1 hPa 0 mm - 337 W/m² -
1787937373 28.33° C 54% 1023.4 hPa 0 mm - 443 W/m² -
1787937069 28.33° C 54% 1023.4 hPa 0 mm - 409 W/m² -
1787936768 28.33° C 55% 1023.4 hPa 0 mm - 421 W/m² -
1787936463 28.33° C 55% 1023.3 hPa 0 mm - 413 W/m² -
1787936162 27.78° C 55% 1023.4 hPa 0 mm - 425 W/m² -
1787935858 27.78° C 56% 1023.2 hPa 0 mm - 400 W/m² -
1787935553 27.78° C 57% 1023.4 hPa 0 mm - 373 W/m² -

* Rain latest hour (hover to see other rain measurements)
** Current wind speed in m/s (hover to see current wind gust speed)